DW5656 Weather Reports


time (UTC)temp
C
wind
direction
speed
KPH
gust
KPH
rain 1hr
cm
rain 24hr
cm
rain mn
cm
humidity
%
barometer
mb
20260901140525 33 223 8.0 17.7 0.00 0.00 0.00 41 1015.4
20260901135646 33 222 8.0 16.1 0.00 0.00 0.00 41 1015.5
20260901134726 34 224 6.4 20.9 0.00 0.00 0.00 41 1015.6
20260901133824 33 200 6.4 16.1 0.00 0.00 0.00 42 1015.7
20260901132925 33 214 6.4 17.7 0.00 0.00 0.00 40 1015.8
20260901132025 33 249 3.2 14.5 0.00 0.00 0.00 39 1015.8
20260901131125 33 280 6.4 9.7 0.00 0.00 0.00 38 1015.9
20260901130224 33 225 6.4 12.9 0.00 0.00 0.00 38 1016.0
20260901125324 33 276 3.2 14.5 0.00 0.00 0.00 37 1015.9
20260901124424 33 262 4.8 16.1 0.00 0.00 0.00 38 1015.9
20260901123524 33 291 4.8 16.1 0.00 0.00 0.00 38 1016.1
20260901122624 33 251 4.8 11.3 0.00 0.00 0.00 37 1016.2
20260901121745 32 160 3.2 11.3 0.00 0.00 0.00 38 1016.3
20260901120824 32 229 3.2 9.7 0.00 0.00 0.00 37 1016.4
20260901115924 32 220 4.8 11.3 0.00 0.00 0.00 39 1016.6
20260901115024 31 212 4.8 9.7 0.00 0.00 0.00 39 1016.5
20260901114124 31 215 3.2 11.3 0.00 0.00 0.00 39 1016.6
20260901113224 31 260 3.2 12.9 0.00 0.00 0.00 40 1016.7
20260901112345 30 292 4.8 9.7 0.00 0.00 0.00 40 1016.8
20260901111424 30 265 3.2 12.9 0.00 0.00 0.00 40 1016.8
20260901110524 30 307 3.2 8.0 0.00 0.00 0.00 40 1016.8
20260901105624 30 328 4.8 8.0 0.00 0.00 0.00 40 1016.9
20260901104724 30 286 3.2 9.7 0.00 0.00 0.00 40 1017.1
20260901103824 30 298 1.6 4.8 0.00 0.00 0.00 40 1017.1
20260901102924 29 277 3.2 8.0 0.00 0.00 0.00 41 1017.1
20260901102024 30 218 1.6 8.0 0.00 0.00 0.00 41 1017.1
20260901101125 30 210 1.6 4.8 0.00 0.00 0.00 41 1016.9
20260901100224 29 193 3.2 6.4 0.00 0.00 0.00 42 1017.1
20260901095345 28 225 3.2 8.0 0.00 0.00 0.00 42 1017.0
20260901094424 28 140 3.2 8.0 0.00 0.00 0.00 43 1017.2
20260901093524 28 66 1.6 6.4 0.00 0.00 0.00 44 1017.1
20260901092624 28 58 3.2 6.4 0.00 0.00 0.00 45 1017.1
20260901091745 27 72 3.2 6.4 0.00 0.00 0.00 46 1017.0
20260901090825 27 66 3.2 8.0 0.00 0.00 0.00 47 1016.9
20260901085945 27 75 1.6 4.8 0.00 0.00 0.00 46 1017.0
20260901085024 27 60 1.6 6.4 0.00 0.00 0.00 48 1017.1
20260901084124 26 74 1.6 6.4 0.00 0.00 0.00 49 1017.1
20260901083224 26 28 1.6 4.8 0.00 0.00 0.00 50 1017.1
20260901082324 26 24 1.6 4.8 0.00 0.00 0.00 51 1017.1
20260901081424 25 38 1.6 3.2 0.00 0.00 0.00 50 1017.0
20260901080523 25 53 0.0 3.2 0.00 0.00 0.00 52 1016.9
20260901075624 25 56 1.6 3.2 0.00 0.00 0.00 52 1016.8
20260901074723 25 56 1.6 4.8 0.00 0.00 0.00 52 1016.8
20260901073823 24 55 1.6 6.4 0.00 0.00 0.00 53 1016.8
20260901072944 24 56 3.2 4.8 0.00 0.00 0.00 54 1016.8
20260901072023 23 57 3.2 6.4 0.00 0.00 0.00 54 1016.8
20260901071144 23 57 3.2 4.8 0.00 0.00 0.00 55 1016.7
20260901070223 23 57 3.2 4.8 0.00 0.00 0.00 55 1016.7
20260901065323 23 61 3.2 6.4 0.00 0.00 0.00 56 1016.5
20260901064444 22 51 1.6 6.4 0.00 0.00 0.00 56 1016.4
20260901063544 22 17 1.6 4.8 0.00 0.00 0.00 58 1016.2
20260901062623 22 17 3.2 4.8 0.00 0.00 0.00 59 1016.2
20260901061723 22 36 3.2 4.8 0.00 0.00 0.00 59 1016.0
20260901060823 22 39 3.2 8.0 0.00 0.00 0.00 58 1016.0
20260901055924 22 41 1.6 6.4 0.00 0.00 0.00 58 1016.0
20260901055023 22 85 3.2 6.4 0.00 0.00 0.00 59 1016.0
20260901054123 22 88 3.2 6.4 0.00 0.00 0.00 59 1016.0
20260901053244 22 49 3.2 6.4 0.00 0.00 0.00 61 1015.9
20260901052344 22 3 3.2 6.4 0.00 0.00 0.00 63 1015.9
20260901051423 22 13 6.4 9.7 0.00 0.00 0.00 63 1015.8
20260901050544 22 19 6.4 12.9 0.00 0.00 0.00 62 1015.7
20260901045644 22 37 4.8 9.7 0.00 0.00 0.00 63 1015.7
20260901044723 22 65 3.2 8.0 0.00 0.00 0.00 63 1015.6
20260901043823 22 52 3.2 8.0 0.00 0.00 0.00 64 1015.7
20260901042923 22 46 3.2 6.4 0.00 0.00 0.00 63 1015.7
20260901042023 23 22 3.2 6.4 0.00 0.00 0.00 62 1015.9
20260901041144 23 16 3.2 8.0 0.00 0.00 0.00 62 1016.0
20260901040244 23 13 4.8 8.0 0.00 0.00 0.00 60 1016.0
20260901035323 23 14 4.8 8.0 0.00 0.00 0.00 59 1016.1
20260901034423 23 350 4.8 8.0 0.00 0.00 0.00 58 1016.1
20260901033523 23 3 4.8 8.0 0.00 0.00 0.00 57 1016.1
20260901032623 23 18 4.8 8.0 0.00 0.00 0.00 56 1016.1
20260901031723 23 24 4.8 8.0 0.00 0.00 0.00 59 1016.2
20260901030823 23 3 3.2 11.3 0.00 0.00 0.00 64 1016.1
20260901025923 23 288 0.0 8.0 0.00 0.00 0.00 64 1016.1
20260901025023 23 276 0.0 1.6 0.00 0.00 0.00 64 1016.1
20260901024144 23 0 0.0 0.0 0.00 0.00 0.00 64 1016.2
20260901023223 23 276 1.6 3.2 0.00 0.00 0.00 64 1016.2
20260901022323 23 276 1.6 4.8 0.00 0.00 0.00 64 1016.3
20260901021423 23 276 1.6 4.8 0.00 0.00 0.00 64 1016.3
20260901020544 23 276 3.2 6.4 0.00 0.00 0.00 64 1016.4
20260901015623 23 258 3.2 6.4 0.00 0.00 0.00 65 1016.4
20260901014722 22 255 3.2 6.4 0.00 0.00 0.00 66 1016.4
20260901013823 22 240 3.2 8.0 0.00 0.00 0.00 66 1016.5
20260901012944 22 225 3.2 8.0 0.00 0.00 0.00 66 1016.6
20260901012022 22 219 4.8 8.0 0.00 0.00 0.00 67 1016.6
20260901011122 22 230 3.2 9.7 0.00 0.00 0.00 67 1016.5
20260901010222 22 234 3.2 8.0 0.00 0.00 0.00 66 1016.5
20260901005322 22 231 4.8 11.3 0.00 0.00 0.00 66 1016.5
20260901004422 22 226 6.4 14.5 0.00 0.00 0.00 65 1016.6
20260901003522 22 231 4.8 14.5 0.00 0.00 0.00 64 1016.6
20260901002622 22 240 6.4 11.3 0.00 0.00 0.00 64 1016.6
20260901001722 22 228 8.0 16.1 0.00 0.00 0.00 63 1016.7
20260901000822 23 221 6.4 16.1 0.00 0.00 0.00 61 1016.5
20260831235922 23 237 4.8 14.5 0.00 0.00 0.00 57 1016.4
20260831235022 23 225 3.2 11.3 0.00 0.00 0.00 56 1016.4
20260831234122 24 233 3.2 11.3 0.00 0.00 0.00 54 1016.3
20260831233243 24 218 4.8 11.3 0.00 0.00 0.00 53 1016.2
20260831232322 24 215 4.8 12.9 0.00 0.00 0.00 51 1016.2
20260831231422 25 218 4.8 11.3 0.00 0.00 0.00 49 1016.2
20260831230522 25 220 4.8 9.7 0.00 0.00 0.00 48 1016.2
20260831225622 25 211 3.2 12.9 0.00 0.00 0.00 48 1016.1
20260831224722 25 217 3.2 9.7 0.00 0.00 0.00 48 1016.0
20260831223822 26 242 3.2 6.4 0.00 0.00 0.00 49 1016.0
20260831222922 26 244 3.2 6.4 0.00 0.00 0.00 49 1016.1
20260831222022 26 231 3.2 8.0 0.00 0.00 0.00 49 1016.1
20260831221122 26 207 3.2 6.4 0.00 0.00 0.00 48 1016.2
20260831220243 26 236 4.8 8.0 0.00 0.00 0.00 48 1016.2
20260831215322 27 225 3.2 9.7 0.00 0.00 0.00 47 1016.3
20260831214422 27 225 4.8 9.7 0.00 0.00 0.00 47 1016.3
20260831213522 27 241 4.8 11.3 0.00 0.00 0.00 45 1016.4
20260831212622 28 247 4.8 8.0 0.00 0.00 0.00 42 1016.4
20260831211722 29 226 3.2 8.0 0.00 0.00 0.00 39 1016.3
20260831210843 30 220 3.2 8.0 0.00 0.00 0.00 37 1016.3
20260831205922 30 222 4.8 8.0 0.00 0.00 0.00 36 1016.2
20260831205022 30 235 3.2 9.7 0.00 0.00 0.00 35 1016.0
20260831204122 31 237 3.2 8.0 0.00 0.00 0.00 33 1015.8
20260831203243 31 251 4.8 11.3 0.00 0.00 0.00 32 1015.7
20260831202322 31 299 4.8 12.9 0.00 0.00 0.00 31 1015.5
20260831201422 31 275 8.0 16.1 0.00 0.00 0.00 31 1015.3
20260831200543 32 272 4.8 14.5 0.00 0.00 0.00 30 1015.2
20260831195621 32 275 6.4 14.5 0.00 0.00 0.00 30 1015.0
20260831194722 32 270 9.7 17.7 0.00 0.00 0.00 30 1014.8
20260831193821 32 270 9.7 16.1 0.00 0.00 0.00 30 1014.6
20260831192921 32 270 9.7 19.3 0.00 0.00 0.00 30 1014.4
20260831192022 33 274 8.0 17.7 0.00 0.00 0.00 29 1014.2
20260831191122 33 267 6.4 16.1 0.00 0.00 0.00 29 1014.2
20260831190221 33 269 8.0 14.5 0.00 0.00 0.00 29 1014.1
20260831185321 33 267 9.7 17.7 0.00 0.00 0.00 29 1014.1
20260831184421 34 262 8.0 17.7 0.00 0.00 0.00 29 1013.9
20260831183521 34 268 9.7 17.7 0.00 0.00 0.00 29 1013.9
20260831182621 35 272 9.7 19.3 0.00 0.00 0.00 30 1013.8
20260831181721 35 270 9.7 22.5 0.00 0.00 0.00 30 1013.9
20260831180842 35 272 9.7 22.5 0.00 0.00 0.00 30 1013.9
20260831175921 35 264 9.7 22.5 0.00 0.00 0.00 30 1013.9
20260831175021 35 266 11.3 20.9 0.00 0.00 0.00 30 1013.9
20260831174122 35 270 8.0 22.5 0.00 0.00 0.00 31 1013.9
20260831173221 35 237 9.7 17.7 0.00 0.00 0.00 35 1013.8
20260831172321 35 226 8.0 19.3 0.00 0.00 0.00 35 1013.8
20260831171421 35 219 8.0 17.7 0.00 0.00 0.00 34 1013.9
20260831170521 36 209 8.0 14.5 0.00 0.00 0.00 33 1013.9
20260831165621 36 208 6.4 17.7 0.00 0.00 0.00 31 1013.9
20260831164742 36 232 6.4 14.5 0.00 0.00 0.00 29 1013.8
20260831163821 36 224 8.0 12.9 0.00 0.00 0.00 30 1013.8
20260831162921 36 238 6.4 17.7 0.00 0.00 0.00 31 1013.9
20260831162021 36 236 6.4 16.1 0.00 0.00 0.00 32 1014.0
20260831161121 36 220 8.0 14.5 0.00 0.00 0.00 33 1014.1
20260831160221 36 242 8.0 16.1 0.00 0.00 0.00 33 1014.1
20260831155342 36 261 8.0 16.1 0.00 0.00 0.00 32 1014.1
20260831154442 36 249 6.4 16.1 0.00 0.00 0.00 32 1014.2
20260831153542 36 249 6.4 17.7 0.00 0.00 0.00 31 1014.2
20260831152621 36 203 4.8 12.9 0.00 0.00 0.00 29 1014.3
20260831151742 36 255 8.0 17.7 0.00 0.00 0.00 30 1014.3
20260831150821 36 231 6.4 16.1 0.00 0.00 0.00 31 1014.3
20260831145921 36 211 4.8 12.9 0.00 0.00 0.00 30 1014.3
20260831145042 36 213 6.4 12.9 0.00 0.00 0.00 29 1014.4
20260831144121 36 205 4.8 16.1 0.00 0.00 0.00 29 1014.5
20260831143221 36 257 4.8 12.9 0.00 0.00 0.00 30 1014.7
20260831142321 36 253 4.8 12.9 0.00 0.00 0.00 29 1014.8
20260831141420 36 224 4.8 14.5 0.00 0.00 0.00 29 1014.9